Location: ????????
(54.9045°N, 39.1041°E)
Time: 03:28:29
(UTC+00:00)

NOSS 2-3 (D) - Pass Details

Date: 14 April 2024
Orbit: 497 x 1701 km, 63.3° (Epoch: 24 April)

Event Time Altitude Azimuth Distance (km) Brightness Sun altitude
Rises 00:22:11 0° 309° (NW) 3,118 7.1 -15.6°
Reaches altitude 10° 00:24:17 10° 306° (NW) 2,327 6.4 -15.4°
Maximum altitude 00:29:33 60° 227° (SW) 1,083 4.4 -14.8°
Drops below altitude 10° 00:36:44 10° 150° (SSE) 3,133 7.0 -14.0°
Sets 00:39:57 0° 148° (SSE) 4,289 7.8 -13.7°
